This demonstration page uses our WeatherBlox Daily Observations layout. Learn more.

Left ArrowRight Arrow

Hourly Observations for August 19, 2022

Temp ( °F °C ) Dew Point ( °F °C ) Humidity (%) Winds ( mph kmh ) Pressure ( in mb ) Visibility ( mi km ) Precip ( " mm )
12:51 am 00:51 Mostly Cloudy 75 23.9 68 20 79 79 ESE 6 9 29.79 1009 10 16 0.00 0.00
1:51 am 01:51 Mostly Clear 76 24.4 66 18.9 71 71 SE 6 9 29.78 1009 10 16 0.00 0.00
2:51 am 02:51 Cloudy 76 24.4 66 18.9 71 71 E 7 11 29.78 1009 10 16 0.00 0.00
3:51 am 03:51 Partly Cloudy 74 23.3 66 18.9 76 76 SE 3 6 29.78 1009 10 16 0.00 0.00
4:51 am 04:51 Mostly Cloudy 73 22.8 66 18.9 79 79 E 6 9 29.78 1009 10 16 0.00 0.00
5:51 am 05:51 Mostly Cloudy 74 23.3 66 18.9 76 76 SSE 5 7 29.80 1009 10 16 0.00 0.00
6:51 am 06:51 Cloudy 75 23.9 67 19.4 76 76 SE 6 9 29.82 1010 10 16 0.00 0.00
7:51 am 07:51 Cloudy 79 26.1 67 19.4 67 67 ESE 7 11 29.81 1010 10 16 0.00 0.00
8:51 am 08:51 Cloudy 79 26.1 66 18.9 65 65 SE 9 15 29.81 1010 10 16 0.00 0.00
9:51 am 09:51 Cloudy 80 26.7 64 17.8 58 58 ESE 13 20 29.81 1010 10 16 0.00 0.00
10:51 am 10:51 Mostly Cloudy 84 28.9 66 18.9 55 55 SE 18 30 29.79 1009 10 16 0.00 0.00
11:43 am 11:43 Cloudy 79 26.1 66 18.9 65 65 E 17 28 29.74 1007 10 16 0.00 0.00
11:51 am 11:51 Cloudy 79 26.1 67 19.4 67 67 E 14 22 29.78 1009 10 16 0.00 0.00
12:51 pm 12:51 Partly Cloudy 84 28.9 66 18.9 55 55 E 12 19 29.74 1007 10 16 0.00 0.00
1:42 pm 13:42 Cloudy 77 25 69 20.6 77 77 SSW 14 22 29.70 1006 10 16 0.00 0.00
1:51 pm 13:51 Cloudy with Nearby Thunderstorms 76 24.4 70 21.1 82 82 S 18 30 29.75 1007 10 16 0.00 0.00
2:10 pm 14:10 Cloudy with Light Rain 72 22.2 71 21.7 97 97 S 15 24 29.73 1007 10 16 0.01 0.25
2:51 pm 14:51 Mostly Cloudy 75 23.9 71 21.7 88 88 N 6 9 29.73 1007 10 16 0.02 0.51
3:51 pm 15:51 Sunny 78 25.6 68 20 71 71 NNE 5 7 29.72 1007 10 16 0.00 0.00
4:51 pm 16:51 Mostly Cloudy 78 25.6 68 20 71 71 Calm 29.72 1007 10 16 0.00 0.00
5:51 pm 17:51 Partly Cloudy 76 24.4 70 21.1 82 82 VRB 5 7 29.73 1007 10 16 0.00 0.00
6:51 pm 18:51 Sunny 75 23.9 70 21.1 84 84 WNW 5 7 29.75 1007 10 16 0.00 0.00
7:51 pm 19:51 Cloudy 74 23.3 69 20.6 85 85 SE 7 11 29.77 1008 10 16 0.00 0.00
8:51 pm 20:51 Cloudy 71 21.7 67 19.4 87 87 SSE 8 13 29.80 1009 10 16 0.00 0.00
9:51 pm 21:51 Mostly Cloudy with Light Rain 69 20.6 69 20.6 100 100 S 6 9 29.80 1009 10 16 0.03 0.76
10:51 pm 22:51 Mostly Cloudy with Rain 69 20.6 69 20.6 100 100 Calm 29.79 1009 9 14 0.11 2.79
11:51 pm 23:51 Partly Cloudy with Light Rain 69 20.6 69 20.6 100 100 W 3 6 29.80 1009 10 16 0.05 1.27

Powered by AerisWeather